SCP
0 0 0 0 0 0 0 1 1 0 0 0 0 0 0 0 0 0 0 0 0 1 1 1 1 1 1 1 1 0 0 0 0 0 0 0 0 0 0 0 0 0 0 0
0 0 0 0 0 0 0 0 1 1 0 0 0 0 0 0 0 0 0 0 0 1 1 1 1 1 1 1 1 0 0 0 0 0 0 0 0 0 0 0 0 0 0 0
0 0 0 0 0 0 0 0 1 1 0 0 0 0 0 0 0 0 0 0 0 1 1 1 1 1 1 1 1 0 0 0 0 0 0 0 0 0 0 0 0 0 0 0
0 0 0 0 0 0 0 0 0 1 1 0 0 0 0 0 0 0 0 0 0 1 1 1 1 1 1 1 1 0 0 0 0 0 0 0 0 0 0 0 0 0 0 0
0 0 0 0 0 0 0 0 0 0 0 0 0 0 0 0 0 0 0 0 0 1 1 1 1 1 1 1 1 0 0 0 0 0 0 0 0 0 0 0 0 0 0 0
0 0 0 0 0 0 0 0 0 0 0 0 0 0 0 0 0 0 0 0 1 1 1 1 1 1 1 1 1 1 0 0 0 0 0 0 0 0 0 0 0 0 0 0
0 0 0 0 0 0 0 0 0 0 0 0 0 0 0 0 0 0 0 0 1 1 1 0 1 1 1 1 1 1 0 0 0 0 0 0 0 0 0 0 0 0 0 0
0 0 0 0 0 0 0 0 0 0 0 0 0 0 0 0 0 0 0 1 1 1 1 1 0 1 1 1 1 1 1 0 0 0 0 0 0 0 0 0 0 0 0 0
0 0 0 0 0 0 0 0 0 0 0 0 0 0 0 0 0 0 0 0 1 1 1 1 1 1 1 1 1 1 1 1 0 0 0 0 0 0 0 0 0 0 0 0
0 0 0 0 0 0 0 0 0 0 0 0 0 0 0 0 0 0 0 0 1 1 1 1 1 1 1 1 1 1 1 1 0 0 0 0 0 0 0 0 0 0 0 0
0 0 0 0 0 0 0 0 0 0 0 0 0 0 0 0 0 0 0 0 0 0 1 1 1 1 1 1 1 1 1 1 1 1 0 0 0 0 0 0 0 0 0 0
0 0 0 0 0 0 0 0 0 0 0 0 0 0 0 0 0 0 0 0 0 0 0 1 1 1 1 0 1 1 2 2 1 1 1 1 0 0 0 0 0 0 0 0
0 0 0 0 0 0 0 0 0 0 0 0 0 0 0 0 0 0 0 0 0 0 1 1 1 1 0 0 1 1 2 2 2 1 1 1 0 0 0 0 0 0 0 0
0 0 0 0 0 0 0 0 0 0 0 0 0 0 0 0 0 0 0 0 0 1 1 1 1 0 0 0 1 1 2 2 2 1 1 1 0 0 0 0 0 0 0 0
0 0 0 0 0 0 0 0 0 0 0 0 0 0 0 0 0 0 0 0 0 1 1 1 1 0 0 0 1 1 2 2 2 1 1 1 0 0 0 0 0 0 0 0
0 0 0 0 0 0 0 0 0 0 0 0 0 0 0 0 0 0 0 0 0 1 1 1 1 1 1 1 1 1 2 2 2 1 1 1 0 0 0 0 0 0 0 0
0 0 0 0 0 0 0 0 0 0 0 0 0 0 0 0 0 0 0 0 0 0 1 1 1 1 1 1 1 2 2 2 2 2 1 1 0 0 0 0 0 0 0 0
0 0 0 0 0 0 0 0 0 0 0 0 0 0 0 0 0 0 0 0 0 0 0 0 0 0 0 1 1 2 2 2 2 2 1 1 0 0 0 0 0 0 0 0
0 0 0 0 0 0 0 0 0 0 0 0 0 0 0 0 0 0 0 0 0 0 0 0 0 0 0 0 1 2 2 2 2 1 1 0 0 0 0 0 0 0 0 0
0 0 0 0 0 0 0 0 0 0 0 0 0 0 0 0 0 0 0 0 0 0 0 0 0 0 0 0 1 2 2 2 2 1 1 0 0 0 0 0 0 0 0 0
0 0 0 0 0 0 0 0 0 0 0 0 0 0 0 0 0 0 0 0 0 0 0 0 0 0 0 1 1 1 2 2 2 1 1 0 0 0 0 0 0 0 0 0
0 0 0 0 0 0 0 0 0 0 0 0 0 0 0 0 0 0 0 0 0 0 0 0 0 0 1 1 1 1 1 2 1 1 1 0 0 0 1 1 0 0 0 0
0 0 0 0 0 0 0 0 0 0 0 0 0 0 0 0 0 0 0 0 0 0 0 0 0 0 1 1 1 1 1 2 1 1 0 0 0 1 1 1 0 0 0 0
0 0 0 0 0 0 0 0 0 0 0 0 0 0 0 0 0 0 0 0 0 0 0 0 0 1 1 1 1 1 1 2 1 1 0 0 0 1 1 1 0 0 0 0
0 0 0 0 0 0 0 0 0 0 0 0 0 0 0 0 0 0 0 0 0 0 0 0 0 0 1 1 1 1 1 2 1 1 0 0 0 1 1 0 0 0 0 0
0 0 0 0 0 0 0 0 0 0 0 0 0 0 0 0 0 0 0 0 0 0 0 0 0 0 1 1 1 1 2 1 1 1 0 0 0 1 1 0 0 0 0 0
Wind_Speed
2 4 1 4 4 3 3 2 2 3 1 1 3 4 5 3 3 3 3 3 4 6 4 2 3 4 5 5 4 4 4 3 3 2 2 2 1 1 1 1 1 2 2 2
4 1 4 3 3 2 2 1 2 2 1 1 3 5 4 3 4 5 5 5 6 5 3 2 2 3 5 5 5 4 4 4 3 2 2 2 2 1 0 1 1 1 2 2
3 3 1 2 2 2 2 3 3 2 2 2 1 4 3 3 3 3 4 4 5 6 6 4 4 4 4 5 6 5 5 4 4 3 3 2 2 2 2 1 1 1 1 2
2 2 1 1 2 3 3 3 3 2 1 2 0 4 5 3 4 5 5 5 5 5 5 4 4 5 6 6 5 5 5 4 4 4 4 4 3 2 2 1 0 1 1 2
2 1 1 2 3 4 3 0 1 1 2 1 1 2 8 2 4 7 7 7 6 6 6 6 6 7 6 5 5 5 5 4 4 4 5 4 3 2 1 1 1 1 1 1
3 1 2 3 1 2 3 4 4 4 3 1 3 3 7 4 6 5 6 7 7 7 6 6 5 5 5 4 5 5 5 4 4 4 4 5 5 4 3 2 2 1 1 1
3 3 2 1 1 1 3 5 4 4 3 4 2 3 8 7 6 6 7 7 7 6 6 6 6 6 6 6 6 5 6 5 4 4 5 5 5 5 5 4 3 2 1 1
1 4 3 1 3 3 2 6 5 3 3 4 2 5 8 5 4 4 5 4 4 5 6 7 7 7 7 7 7 6 6 5 5 5 5 4 5 3 3 3 3 3 2 2
4 4 3 1 1 5 4 2 4 4 1 2 5 6 8 3 3 3 2 2 4 5 6 6 6 6 6 7 7 8 7 5 5 5 4 4 4 4 3 3 3 2 2 2
6 3 3 2 2 2 3 6 4 4 2 3 5 4 5 5 5 4 2 3 3 3 4 5 5 5 5 6 6 7 7 7 6 6 5 4 4 4 4 3 3 3 3 3
4 3 3 2 2 3 3 3 3 3 3 3 3 7 6 6 5 4 4 3 3 3 4 5 5 5 5 5 6 6 6 5 5 5 4 4 4 4 4 3 4 4 3 3
3 4 2 4 4 2 3 5 6 4 3 3 3 9 5 4 4 3 4 3 3 3 3 3 4 4 4 5 5 6 6 6 5 5 5 5 4 4 4 4 3 3 3 3
5 5 2 5 4 1 1 2 3 4 4 3 4 8 4 3 3 3 3 3 2 2 1 1 3 4 5 6 6 6 6 6 5 5 5 4 4 5 4 4 3 4 4 3
4 4 5 7 6 3 3 3 3 4 3 5 8 9 9 7 6 5 4 3 2 1 1 1 3 4 4 5 6 6 6 6 6 5 5 5 5 5 5 4 4 4 4 4
4 3 3 4 4 3 5 5 5 6 7 8 8 9 11 8 7 5 4 2 1 1 1 1 3 3 3 3 4 5 5 5 5 5 6 6 5 4 4 4 4 4 4 4
3 2 1 3 4 4 6 7 7 7 7 7 7 10 8 5 2 2 3 2 3 3 3 2 3 3 4 4 4 5 5 5 5 5 5 5 5 5 4 4 4 4 4 3
1 3 2 3 4 3 7 7 7 6 5 6 8 9 4 3 4 4 4 4 5 4 3 3 3 4 4 5 5 6 5 5 5 5 5 5 5 5 4 4 4 4 4 3
5 4 3 1 0 6 8 3 4 5 4 4 4 4 3 4 4 4 3 4 4 3 3 3 3 4 4 3 3 4 4 5 5 5 5 5 5 5 4 4 4 3 3 3
5 6 4 3 3 7 7 3 3 3 4 3 3 3 2 2 3 3 2 2 4 4 4 4 4 4 3 4 4 4 5 5 5 5 5 5 6 6 5 5 4 3 3 3
3 4 4 3 4 6 7 3 1 2 4 3 2 2 1 2 1 5 4 3 3 2 2 3 2 2 3 3 4 5 5 5 6 6 6 6 6 7 6 5 4 3 3 3
2 2 4 4 5 8 6 3 2 3 6 3 2 3 3 4 5 5 3 3 2 2 1 2 2 3 4 4 6 5 5 6 6 5 5 5 5 6 6 5 4 4 4 3
5 4 5 4 4 8 3 3 4 5 3 2 2 3 4 4 3 3 2 2 2 0 0 1 2 2 3 5 6 6 5 5 4 5 5 5 5 5 5 5 4 4 5 4
5 6 5 7 7 4 2 4 3 2 3 3 3 3 3 3 3 3 2 2 1 1 1 1 2 2 2 4 6 6 5 4 5 5 5 5 5 4 5 6 5 4 4 4
3 1 2 4 6 5 5 4 3 3 4 4 3 3 3 3 3 3 2 2 1 1 1 1 1 2 2 3 4 4 4 5 6 6 5 5 5 5 4 4 5 5 5 4
4 2 2 5 6 5 5 4 4 5 5 3 3 3 4 4 3 3 3 2 2 2 1 1 2 3 3 3 3 3 4 5 6 6 5 5 5 5 5 4 3 5 5 6
5 6 5 6 6 4 7 6 6 6 6 4 3 3 3 4 4 3 3 3 3 2 2 2 2 2 3 3 3 4 4 6 6 5 5 5 4 4 4 4 2 1 2 4
Wind_Direction
47 74 184 211 189 179 158 170 251 267 239 173 236 260 262 226 207 231 239 233 235 244 250 225 199 185 171 165 164 167 165 154 130 117 119 113 108 84 62 63 75 99 113 118
46 286 235 186 160 152 151 193 263 301 307 201 250 271 262 225 217 217 221 227 233 244 255 230 196 180 178 172 168 171 173 166 162 152 144 137 133 125 103 44 63 90 125 135
172 249 176 137 143 155 211 199 216 241 346 10 321 305 277 257 237 227 222 222 230 227 226 216 199 190 182 178 179 184 182 176 170 148 119 95 75 60 51 39 30 37 118 133
241 265 138 154 203 166 252 228 198 194 108 300 14 290 284 266 267 246 236 226 229 231 220 204 196 196 196 193 184 179 176 176 174 158 151 147 148 157 184 177 168 79 100 120
252 209 182 218 229 172 219 182 135 155 156 321 331 245 285 296 266 256 241 232 227 222 214 205 202 202 200 189 180 178 170 174 175 170 164 154 146 157 137 113 109 87 71 99
256 256 208 214 208 160 143 66 52 48 74 298 236 208 278 243 233 252 241 230 223 217 212 207 205 197 192 180 175 170 170 177 176 170 166 166 160 154 144 144 139 128 80 72
332 320 295 175 102 47 89 84 31 3 3 265 259 224 255 253 239 231 239 234 221 209 203 200 195 193 186 179 177 174 172 178 179 175 177 177 171 167 171 173 168 162 154 152
172 293 277 220 176 177 162 139 154 201 236 281 300 246 259 267 269 254 249 236 212 201 200 202 200 197 191 185 179 177 179 179 178 183 187 180 174 170 178 179 174 178 184 179
180 253 283 244 176 142 142 170 167 141 195 276 279 284 297 285 287 275 267 239 220 211 206 207 203 196 192 187 184 182 182 178 182 189 183 181 178 177 182 181 173 174 177 160
162 228 289 298 85 46 146 146 106 122 165 268 292 282 263 281 272 277 277 259 253 238 219 212 205 200 193 186 181 178 181 183 184 182 182 183 184 186 181 171 174 173 168 155
146 171 301 8 188 200 117 117 122 128 160 173 270 273 237 242 255 257 264 266 256 241 233 215 204 198 188 178 176 177 180 178 177 178 181 181 183 176 171 175 181 174 164 159
143 130 238 264 260 223 185 180 155 162 215 185 207 268 278 258 258 257 271 277 267 243 236 219 195 182 180 182 183 182 179 181 184 179 180 182 173 163 170 176 179 161 154 154
140 121 72 341 338 352 171 170 157 133 128 169 204 266 300 322 299 278 274 284 281 258 267 217 181 181 188 189 187 185 182 183 179 173 174 176 170 169 178 178 171 162 158 151
121 130 172 204 226 228 252 227 181 150 174 215 229 256 289 295 293 295 293 289 287 260 250 210 191 193 195 188 184 184 184 178 174 170 172 182 186 181 181 174 168 167 162 154
105 164 215 238 247 235 244 246 217 209 207 210 239 243 258 265 265 269 265 269 280 263 249 235 196 192 190 183 182 181 178 170 171 171 177 190 186 173 162 159 159 157 156 155
83 152 191 277 266 255 263 256 240 234 227 230 247 260 262 277 272 265 253 244 246 247 240 242 209 185 187 190 189 182 176 173 168 173 182 177 167 162 162 161 152 147 144 144
136 140 150 259 289 323 269 239 222 223 216 203 225 246 270 274 258 241 232 234 237 243 244 228 213 202 198 194 186 185 181 164 164 174 172 163 160 160 163 157 149 152 157 148
155 141 152 204 122 238 245 240 217 221 238 225 235 261 252 250 261 257 226 215 238 244 246 241 217 211 205 190 179 171 158 161 167 171 166 162 158 157 152 149 156 160 155 156
168 153 151 160 215 269 288 262 190 201 259 246 240 284 327 338 351 310 274 242 242 242 239 227 213 207 189 177 172 154 156 161 168 176 172 169 163 159 156 160 163 158 149 153
115 134 143 164 199 238 251 264 245 137 262 266 221 244 259 77 346 275 288 283 272 265 241 206 195 182 171 172 155 152 164 167 182 186 179 171 167 164 167 169 158 146 145 150
109 128 173 193 224 257 261 272 109 170 248 272 219 221 198 204 228 264 286 285 269 262 219 166 166 178 186 168 154 155 164 187 195 180 165 164 167 167 164 157 150 145 140 131
179 178 192 175 209 252 261 134 177 221 262 262 237 226 218 241 267 277 279 280 293 294 121 151 168 192 175 161 158 161 182 194 171 158 160 164 161 159 152 150 149 147 144 141
198 194 194 197 218 248 231 215 243 229 251 255 243 249 223 254 266 269 269 275 270 204 197 170 175 184 172 171 171 176 189 168 155 155 161 164 158 155 154 154 151 147 152 156
266 210 193 260 271 282 282 283 280 264 259 260 244 228 210 241 252 252 258 275 269 249 218 169 154 170 196 188 182 183 168 157 157 162 164 162 161 157 156 159 161 162 167 168
235 197 215 260 279 301 299 293 291 293 288 282 270 234 220 220 234 230 238 244 237 232 228 179 180 197 202 191 187 181 161 156 162 165 164 163 168 164 164 167 175 178 185 184
212 198 199 236 242 244 273 285 292 290 286 277 270 270 256 225 222 227 227 225 216 211 203 188 197 201 198 182 191 182 168 165 167 169 169 166 165 166 163 156 132 88 160 179